Regional Weather Roundup
Issued by NWS

Home | Current Version | Previous Version | Graphics & Text | Print | Product List | Glossary On
Versions: 1 2 3 4 5 6 7 8 9 10 11 12 13 14 15 16 17 18 19 20 21 22 23 24 25 26 27 28 29 30 31 32 33 34 35 36 37 38 39 40 41 42 43 44 45 46 47 48 49 50
648
ASUS43 KMPX 251910
RWRMN
WEATHER ROUNDUP FOR MINNESOTA
NATIONAL WEATHER SERVICE TWIN CITIES/CHANHASSEN MN
200 PM CDT SAT MAR 25 2017


NOTE: "FAIR" INDICATES FEW OR NO CLOUDS BELOW 12,000 FEET WITH NO
SIGNIFICANT WEATHER AND/OR OBSTRUCTIONS TO VISIBILITY. N/A MEANS
CURRENT SKY AND/OR WEATHER CONDITIONS ARE NOT AVAILABLE.

MNZ060>063-068>070-252000-
   Twin Cities Metro

CITY           SKY/WX    TMP DP  RH WIND       PRES   REMARKS
TWIN CITIES    CLOUDY    42  32  67 NE16      30.12F
ST PAUL        CLOUDY    41  34  76 NE14      30.14F
CRYSTAL        CLOUDY    41  30  65 E8        30.13F
BLAINE         CLOUDY    43  36  75 E16       30.14F
LAKEVILLE      CLOUDY    39  34  81 NE15      30.10F
EDEN PRAIRIE   CLOUDY    43  33  68 NE15      30.10F
SOUTH ST PAUL  CLOUDY    42  32  68 NE14      30.12F
LAKE ELMO      CLOUDY    41  34  75 NE9G17    30.14F
$$
MNZ001>005-007-008-013>017-022>024-027-028-252000-
   Northwest Minnesota

CITY           SKY/WX    TMP DP  RH WIND       PRES   REMARKS
BEMIDJI        SUNNY     40  29  65 E14       30.14F
HALLOCK        CLOUDY    37  34  87 S16       30.13F
ROSEAU         CLOUDY    43  32  65 S12       30.15S
WARROAD        CLOUDY    43  32  65 S10       30.15F
THIEF RVR FALL PTSUNNY  N/A N/A N/A S15       30.14F
CROOKSTON      PTSUNNY   39  34  81 S15       30.14F
FOSSTON        CLOUDY    43  36  75 SE6       30.13F
DETROIT LAKES  CLOUDY    43  32  65 SE13      30.13F
MOORHEAD       CLOUDY    37  30  75 S12       30.15S
PARK RAPIDS    MOSUNNY   42  27  55 E9        30.13F
MAHNOMEN       FAIR      43  31  63 S7        30.11F
$$
MNZ006-009>011-018-025>026-252000-
   North Central Minnesota

CITY           SKY/WX    TMP DP  RH WIND       PRES   REMARKS
BAUDETTE       SUNNY     42  28  57 SE13      30.14F
FLAG ISLAND    CLOUDY    36  30  80 S12       30.17S
INTL FALLS     MOSUNNY   38  26  62 SE14      30.20F
WASKISH        PTSUNNY   43  30  61 E13       30.16F
BIG FORK       CLOUDY    39  28  65 SE9       30.18F
LONGVILLE      MOSUNNY   41  28  60 SE7       30.16F
GRAND RAPIDS   CLOUDY    36  28  73 SE12G18   30.20F
CRANE LAKE     CLOUDY    37  25  60 SE5       30.25F
ORR            CLOUDY    37  23  56 SE8       30.19F
COOK           CLOUDY    36  27  69 SE9       30.22F
WALKER         FAIR      39  29  67 E10       30.15F
$$
MNZ012-019>021-037-252000-
   Northeast Minnesota

CITY           SKY/WX    TMP DP  RH WIND       PRES   REMARKS
DULUTH         CLOUDY    34  29  82 E20G25    30.21F WCI  23
ELY            CLOUDY    36  25  64 SE7       30.23F
HIBBING        CLOUDY    34  27  75 E13G23    30.21F WCI  25
EVELETH        CLOUDY    35  26  70 SE9       30.23F WCI  28
DULUTH HARBOR  CLOUDY    36  30  80 NE25G31   30.25F
TWO HARBORS    CLOUDY    36  30  80 E20G28    30.23F
SILVER BAY     CLOUDY    32  28  86 NE16G25   30.26F WCI  21
GRAND MARAIS     N/A     33  25  72 E18       30.33F WCI  22
G MARAIS ARPRT SUNNY     32  16  51 E10       30.26F WCI  24
$$
MNZ029>031-032-039>041-046>048-054>057-064-252000-
   West Central Minnesota

CITY           SKY/WX    TMP DP  RH WIND       PRES   REMARKS
FERGUS FALLS   CLOUDY    37  30  75 SE12      30.18F
WHEATON        CLOUDY    37  30  75 SE12      30.15F
MORRIS         CLOUDY    39  32  75 E12G20    30.11F
ALEXANDRIA     CLOUDY    39  30  70 E12       30.12F
ELBOW LAKE     CLOUDY    36  30  79 SE8       30.13F
WADENA         SUNNY     43  30  61 E13       30.12F
GLENWOOD       CLOUDY    39  32  75 E14G20    30.12F
APPLETON       CLOUDY    39  34  81 E13       30.12S
BENSON         CLOUDY    43  30  61 SE10      30.13F
ORTONVILLE     CLOUDY    37  30  75 E10       30.12F
MADISON        CLOUDY    41  37  87 E12       30.11F
WILLMAR        CLOUDY    39  34  81 E12       30.13F
$$
MNZ033>034-036-042>043-049>051-058-059-252000-
   Central Minnesota

CITY           SKY/WX    TMP DP  RH WIND       PRES   REMARKS
ST CLOUD       CLOUDY    38  32  79 NE9       30.14F
SAUK CENTRE    CLOUDY    37  32  79 E13       30.13F
PAYNESVILLE      N/A     37  31  80 E12       30.13F
AITKIN         CLOUDY    43  27  52 E9G17     30.16F
PINE RIVER     MOSUNNY   41  30  65 E10G18    30.18F
BRAINERD       CLOUDY    39  28  64 E12G20    30.16F
STAPLES        SUNNY     43  27  52 E10       30.14F
LONG PRAIRIE   CLOUDY    36  32  87 NE15      30.13F
LITTLE FALLS   CLOUDY    37  30  75 E8        30.15F
LITCHFIELD     CLOUDY    39  34  81 NE10G16   30.13F
BUFFALO        CLOUDY    40  32  73 NE9       30.15F
MAPLE LAKE     CLOUDY    41  34  77 E10       30.15F
HUTCHINSON     CLOUDY    41  36  81 NE13      30.12F
$$
MNZ037-044-045-052-053-252000-
   East Central Minnesota

CITY           SKY/WX    TMP DP  RH WIND       PRES   REMARKS
PRINCETON      CLOUDY    41  32  70 NE7       30.16F
MORA           CLOUDY    41  32  70 E9        30.18F
CAMBRIDGE      CLOUDY    43  30  61 NE9       30.15S
RUSH CITY      CLOUDY    40  32  70 E8        30.18S
MOOSE LAKE     CLOUDY    39  30  70 E8        30.17F
CLOQUET        CLOUDY    34  28  80 E13G22    30.20F WCI  25
MCGREGOR       CLOUDY    37  30  75 E14       30.19F
$$
MNZ071>073-080-081-089-090-097-098-252000-
   Southwest Minnesota

CITY           SKY/WX    TMP DP  RH WIND       PRES   REMARKS
MONTEVIDEO     CLOUDY    39  36  87 SE10      30.13F
GRANITE FALLS  CLOUDY    42  36  79 NE13      30.12F
CANBY          CLOUDY    40  35  84 NE7       30.11F
MARSHALL       CLOUDY    40  35  83 E14       30.09F
REDWOOD FALLS  CLOUDY    42  34  73 E10       30.09F
OLIVIA         CLOUDY    41  34  75 NE10      30.10F
PIPESTONE      CLOUDY    39  34  81 E8G16     30.05F
WINDOM         CLOUDY    39  37  93 NE12      30.05F
WORTHINGTON    CLOUDY    38  36  92 NE15      30.04F
JACKSON        CLOUDY    37  34  87 NE16      30.05F
TRACY          CLOUDY    40  38  93 NE12      30.07F
SLAYTON        CLOUDY    36  36  99 NE13      30.06F FOG
$$
MNZ065>067-074>077-082>085-091>093-252000-
   South Central Minnesota

CITY           SKY/WX    TMP DP  RH WIND       PRES   REMARKS
MANKATO        CLOUDY    39  34  82 NE17      30.08F
NEW ULM        CLOUDY    43  34  70 NE17      30.07F
ST JAMES       CLOUDY    39  36  87 NE13G20   30.08F
FAIRMONT       CLOUDY    39  35  86 NE16      30.06F
GLENCOE        CLOUDY    42  37  82 NE9       30.10F
FARIBAULT      CLOUDY    39  36  87 NE12      30.09F
OWATONNA       CLOUDY    39  34  81 NE17G23   30.08S
WASECA         CLOUDY    37  34  87 NE17      30.08F
ALBERT LEA     CLOUDY    37  36  93 NE15G24   30.04F
$$
MNZ078>079-086>088-094>096-252000-
   Southeast Minnesota

CITY           SKY/WX    TMP DP  RH WIND       PRES   REMARKS
ROCHESTER      CLOUDY    37  35  92 NE21      30.05F
RED WING       CLOUDY    41  32  70 E9G18     30.11F
STANTON        CLOUDY    41  35  78 NE15      30.09F
DODGE CENTER   CLOUDY    37  36  93 NE20G26   30.05F
WINONA         CLOUDY    41  34  75 E6        30.10F
AUSTIN         CLOUDY    37  34  87 NE17      30.03F
PRESTON        CLOUDY    36  33  88 NE14G21   30.05F
$$
ABBREVIATIONS USED IN REMARKS
   TC - TEMPERATURES IN CELSIUS
  WCI - WIND CHILL INDEX
   HX - HEAT INDEX
  VSB - VISIBILITY
$$




USA.gov is the U.S. government's official web portal to all federal, state and local government web resources and services.